GW0026 Weather Reports


Display with metric or nautical units.
time (UTC)temp
F
wind
direction
speed
MPH
gust
MPH
rain 1hr
in
rain 24hr
in
rain mn
in
humidity
%
barometer
mb
20260510192121 68 305 1.0 2.0 0.00 0.00 0.00 52 1012.4
20260510191618 67 339 1.0 1.0 0.00 0.00 0.00 55 1012.6
20260510191114 67 352 1.0 2.0 0.00 0.00 0.00 56 1012.6
20260510190612 68 289 1.0 1.0 0.00 0.00 0.00 54 1012.6
20260510190109 68 313 2.0 2.0 0.00 0.00 0.00 56 1012.5
20260510185605 68 342 3.0 6.0 0.00 0.00 0.00 53 1012.6
20260510185103 68 339 3.0 3.0 0.00 0.00 0.00 56 1012.5
20260510184600 67 147 1.0 1.0 0.00 0.00 0.00 56 1012.7
20260510184055 67 328 1.0 1.0 0.00 0.00 0.00 54 1012.6
20260510183551 67 322 2.0 2.0 0.00 0.00 0.00 54 1012.9
20260510183046 67 261 0.0 0.0 0.00 0.00 0.00 57 1012.7
20260510182544 67 25 2.0 5.0 0.00 0.00 0.00 52 1012.7
20260510182038 67 320 0.0 1.0 0.00 0.00 0.00 54 1012.8
20260510181537 67 359 2.0 2.0 0.00 0.00 0.00 55 1012.8
20260510181033 67 244 2.0 2.0 0.00 0.00 0.00 52 1012.6
20260510180530 68 332 1.0 1.0 0.00 0.00 0.00 56 1012.7
20260510180027 68 284 1.0 2.0 0.00 0.00 0.00 56 1012.8
20260510175522 67 172 1.0 2.0 0.00 0.00 0.00 59 1012.7
20260510175019 67 187 3.0 3.0 0.00 0.00 0.00 58 1012.7
20260510174517 66 255 1.0 1.0 0.00 0.00 0.00 62 1012.6
20260510174014 67 142 1.0 2.0 0.00 0.00 0.00 59 1012.5
20260510173509 66 321 0.0 1.0 0.00 0.00 0.00 63 1012.4
20260510173006 66 284 1.0 1.0 0.00 0.00 0.00 60 1012.4
20260510172501 66 343 1.0 2.0 0.00 0.00 0.00 59 1012.5
20260510171958 66 291 2.0 6.0 0.00 0.00 0.00 63 1012.3
20260510171455 66 356 2.0 3.0 0.00 0.00 0.00 61 1012.5
20260510170951 65 21 2.0 3.0 0.00 0.00 0.00 63 1012.4
20260510170448 64 290 1.0 3.0 0.00 0.00 0.00 66 1012.5
20260510165944 64 302 1.0 3.0 0.00 0.00 0.00 66 1012.8
20260510165440 65 26 3.0 3.0 0.00 0.00 0.00 62 1012.6
20260510164937 64 317 3.0 5.0 0.00 0.00 0.00 62 1012.7
20260510164434 64 10 1.0 1.0 0.00 0.00 0.00 69 1012.6
20260510163934 62 14 1.0 1.0 0.00 0.00 0.00 68 1012.8
20260510163431 62 338 4.0 6.0 0.00 0.00 0.00 67 1012.6
20260510162925 61 344 0.0 1.0 0.00 0.00 0.00 70 1012.8
20260510162423 61 287 0.0 1.0 0.00 0.00 0.00 68 1012.6
20260510161919 62 320 2.0 2.0 0.00 0.00 0.00 69 1012.6
20260510161415 61 303 0.0 1.0 0.00 0.00 0.00 66 1012.8
20260510160912 60 155 0.0 1.0 0.00 0.00 0.00 72 1012.9
20260510160409 60 334 0.0 0.0 0.00 0.00 0.00 72 1012.9
20260510155908 60 318 1.0 1.0 0.00 0.00 0.00 69 1013.0
20260510155405 60 337 2.0 2.0 0.00 0.00 0.00 71 1013.0
20260510154901 59 314 0.0 1.0 0.00 0.00 0.00 75 1012.9
20260510154358 58 349 0.0 0.0 0.00 0.00 0.00 82 1012.9
20260510153851 58 75 1.0 1.0 0.00 0.00 0.00 84 1012.9
20260510153347 59 264 0.0 1.0 0.00 0.00 0.00 85 1012.8
20260510152844 59 321 2.0 3.0 0.00 0.00 0.00 84 1012.8
20260510152342 59 282 2.0 2.0 0.00 0.00 0.00 85 1012.8
20260510151838 59 336 0.0 0.0 0.00 0.00 0.00 85 1012.4
20260510151336 60 206 1.0 1.0 0.00 0.00 0.00 84 1012.2
20260510150831 59 291 0.0 1.0 0.00 0.00 0.00 86 1012.3
20260510150327 57 331 1.0 1.0 0.00 0.00 0.00 87 1012.3
20260510145824 57 295 0.0 1.0 0.00 0.00 0.00 90 1012.2
20260510145320 57 257 1.0 1.0 0.00 0.00 0.00 91 1012.2
20260510144817 57 307 1.0 2.0 0.00 0.00 0.00 92 1012.1
20260510144314 57 313 1.0 2.0 0.00 0.00 0.00 92 1011.9
20260510143813 57 285 0.0 0.0 0.00 0.00 0.00 93 1011.9
20260510143310 57 345 0.0 0.0 0.00 0.00 0.00 92 1011.9
20260510142806 58 290 1.0 2.0 0.00 0.00 0.00 92 1011.7
20260510142306 57 338 0.0 0.0 0.00 0.00 0.00 93 1011.8
20260510141800 57 341 0.0 0.0 0.00 0.00 0.00 93 1011.7
20260510141258 56 332 1.0 1.0 0.00 0.00 0.00 94 1011.7
20260510140755 56 347 0.0 0.0 0.00 0.00 0.00 94 1011.6
20260510140250 56 355 0.0 0.0 0.00 0.00 0.00 94 1011.4
20260510135744 56 342 0.0 0.0 0.00 0.00 0.00 95 1011.5
20260510135240 55 356 0.0 0.0 0.00 0.00 0.00 95 1011.6
20260510134738 56 359 0.0 0.0 0.00 0.00 0.00 95 1011.3
20260510134235 56 34 1.0 1.0 0.00 0.00 0.00 95 1011.6
20260510133730 56 346 0.0 1.0 0.00 0.00 0.00 95 1011.7
20260510133226 56 354 0.0 0.0 0.00 0.00 0.00 95 1011.4
20260510132722 56 342 0.0 0.0 0.00 0.00 0.00 96 1011.2
20260510132220 56 354 0.0 0.0 0.00 0.00 0.00 96 1011.3
20260510131717 56 294 1.0 1.0 0.00 0.00 0.00 95 1011.3
20260510131215 56 0 0.0 1.0 0.00 0.00 0.00 96 1011.3
20260510130711 56 290 1.0 3.0 0.00 0.00 0.00 96 1011.3
20260510130208 55 351 0.0 0.0 0.00 0.00 0.00 98 1011.2
20260510125704 55 4 0.0 0.0 0.00 0.00 0.00 99 1011.1
20260510125201 54 356 0.0 0.0 0.00 0.00 0.00 99 1011.0
20260510124658 54 352 0.0 0.0 0.00 0.00 0.00 99 1011.0
20260510124155 54 347 0.0 1.0 0.00 0.00 0.00 99 1011.2
20260510123650 53 355 0.0 0.0 0.00 0.00 0.00 99 1011.1
20260510123146 53 351 0.0 0.0 0.00 0.00 0.00 99 1010.9
20260510122643 53 319 0.0 1.0 0.00 0.00 0.00 99 1010.9
20260510122139 53 10 0.0 0.0 0.00 0.00 0.00 99 1011.2
20260510121635 53 318 0.0 0.0 0.00 0.00 0.00 99 1011.0
20260510121133 52 328 0.0 0.0 0.00 0.00 0.00 99 1010.9
20260510120631 52 344 0.0 0.0 0.00 0.00 0.00 99 1011.2
20260510120126 52 316 2.0 2.0 0.00 0.00 0.00 99 1011.0
20260510115622 52 351 0.0 0.0 0.00 0.00 0.00 99 1010.8
20260510115121 52 341 0.0 0.0 0.00 0.00 0.00 99 1011.0
20260510114615 52 343 2.0 3.0 0.00 0.00 0.00 99 1010.9
20260510114112 51 356 0.0 0.0 0.00 0.00 0.00 99 1010.8
20260510113608 51 355 0.0 0.0 0.00 0.00 0.00 99 1010.7
20260510113105 51 315 0.0 0.0 0.00 0.00 0.00 99 1010.8
20260510112601 51 6 0.0 0.0 0.00 0.00 0.00 99 1010.9
20260510112058 51 346 0.0 0.0 0.00 0.00 0.00 99 1011.0
20260510111554 51 325 0.0 0.0 0.00 0.00 0.00 99 1010.8
20260510111050 51 336 2.0 2.0 0.00 0.00 0.00 99 1010.8
20260510110547 51 1 0.0 0.0 0.00 0.00 0.00 99 1010.5
20260510110043 51 347 0.0 0.0 0.00 0.00 0.00 99 1010.4
20260510105539 51 18 0.0 1.0 0.00 0.00 0.00 99 1010.4
20260510105033 51 0 0.0 0.0 0.00 0.00 0.00 99 1010.4
20260510104530 51 355 0.0 0.0 0.00 0.00 0.00 99 1010.4
20260510104027 51 359 0.0 0.0 0.00 0.00 0.00 99 1010.4
20260510103524 51 352 0.0 0.0 0.00 0.00 0.00 99 1010.4
20260510103020 51 350 0.0 0.0 0.00 0.00 0.00 99 1010.0
20260510102516 51 343 0.0 0.0 0.00 0.00 0.00 99 1010.2
20260510102013 51 350 0.0 0.0 0.00 0.00 0.00 99 1010.4
20260510101510 51 349 0.0 0.0 0.00 0.00 0.00 99 1009.9
20260510101009 51 351 0.0 0.0 0.00 0.00 0.00 99 1009.8
20260510100504 50 327 0.0 0.0 0.00 0.00 0.00 99 1009.7
20260510100002 50 348 0.0 0.0 0.00 0.00 0.00 99 1009.6
20260510095456 50 350 0.0 0.0 0.00 0.00 0.00 99 1009.7
20260510094956 50 349 0.0 0.0 0.00 0.00 0.00 99 1009.8
20260510094451 50 344 0.0 0.0 0.00 0.00 0.00 99 1009.7
20260510093947 50 352 0.0 0.0 0.00 0.00 0.00 99 1009.4
20260510093443 50 357 0.0 0.0 0.00 0.00 0.00 99 1009.4
20260510092939 50 354 0.0 0.0 0.00 0.00 0.00 99 1009.1
20260510092437 49 349 0.0 0.0 0.00 0.00 0.00 99 1009.0
20260510091936 49 347 0.0 0.0 0.00 0.00 0.00 99 1009.1
20260510091434 49 347 0.0 0.0 0.00 0.00 0.00 99 1009.0
20260510090930 49 345 0.0 0.0 0.00 0.00 0.00 99 1009.2
20260510090427 49 346 0.0 0.0 0.00 0.00 0.00 99 1009.1
20260510085922 49 348 0.0 0.0 0.00 0.00 0.00 99 1009.0
20260510085418 49 348 0.0 0.0 0.00 0.00 0.00 99 1009.0
20260510084913 49 348 0.0 0.0 0.00 0.00 0.00 99 1009.2
20260510084411 49 349 0.0 0.0 0.00 0.00 0.00 99 1008.8
20260510083907 49 349 0.0 0.0 0.00 0.00 0.00 99 1009.0
20260510083404 50 348 0.0 0.0 0.00 0.00 0.00 99 1009.1
20260510082859 50 348 0.0 0.0 0.00 0.00 0.00 99 1009.2
20260510082357 50 351 0.0 0.0 0.00 0.00 0.00 99 1009.2
20260510081855 50 329 0.0 0.0 0.00 0.00 0.00 99 1009.1
20260510081352 51 320 0.0 0.0 0.00 0.00 0.00 99 1009.4
20260510080849 51 348 0.0 0.0 0.00 0.00 0.00 99 1009.1
20260510080342 51 344 0.0 0.0 0.00 0.00 0.00 99 1009.2
20260510075840 51 329 0.0 0.0 0.00 0.00 0.00 99 1009.1
20260510075338 51 348 0.0 0.0 0.00 0.00 0.00 99 1009.0
20260510074834 51 349 0.0 1.0 0.00 0.00 0.00 99 1009.0
20260510074331 51 355 0.0 0.0 0.00 0.00 0.00 99 1008.6
20260510073828 51 36 0.0 1.0 0.00 0.00 0.00 99 1008.6
20260510073323 51 2 0.0 0.0 0.00 0.00 0.00 99 1008.8
20260510072820 51 316 0.0 0.0 0.00 0.00 0.00 99 1008.7
20260510072317 51 349 0.0 0.0 0.00 0.00 0.00 99 1009.0
20260510071813 51 343 0.0 0.0 0.00 0.00 0.00 99 1009.1
20260510071309 51 64 0.0 0.0 0.00 0.00 0.00 99 1009.1
20260510070809 51 0 0.0 0.0 0.00 0.00 0.00 99 1009.5
20260510070305 52 50 0.0 0.0 0.00 0.00 0.00 99 1009.6
20260510065804 52 17 0.0 0.0 0.00 0.00 0.00 99 1009.6
20260510065305 52 4 0.0 0.0 0.00 0.00 0.00 99 1009.6
20260510064758 52 352 0.0 0.0 0.00 0.00 0.00 99 1009.8
20260510064256 52 347 0.0 0.0 0.00 0.00 0.00 99 1009.9
20260510063751 52 339 0.0 0.0 0.00 0.00 0.00 99 1009.8
20260510063248 52 347 0.0 0.0 0.00 0.00 0.00 99 1009.7
20260510062745 52 352 0.0 1.0 0.00 0.00 0.00 99 1009.8
20260510062241 52 344 0.0 0.0 0.00 0.00 0.00 99 1010.0
20260510061736 52 347 0.0 0.0 0.00 0.00 0.00 99 1010.0
20260510061234 52 344 0.0 0.0 0.00 0.00 0.00 99 1009.9
20260510060730 52 341 1.0 1.0 0.00 0.00 0.00 99 1009.7
20260510060227 52 4 0.0 0.0 0.00 0.00 0.00 99 1009.7
20260510055723 52 355 0.0 0.0 0.00 0.00 0.00 99 1009.6
20260510055221 52 347 0.0 0.0 0.00 0.00 0.00 99 1009.6
20260510054716 52 330 0.0 0.0 0.00 0.00 0.00 99 1009.5
20260510054212 52 347 0.0 0.0 0.00 0.00 0.00 99 1009.5
20260510053712 52 355 0.0 0.0 0.00 0.00 0.00 99 1009.3
20260510053208 52 3 0.0 0.0 0.00 0.00 0.00 99 1009.4
20260510052704 52 302 0.0 0.0 0.00 0.00 0.00 99 1009.4
20260510052200 52 347 3.0 3.0 0.00 0.00 0.00 99 1009.3
20260510051656 52 351 0.0 0.0 0.00 0.00 0.00 99 1009.2
20260510051153 52 348 0.0 0.0 0.00 0.00 0.00 99 1009.2
20260510050650 52 350 0.0 0.0 0.00 0.00 0.00 99 1009.2
20260510050147 52 24 0.0 0.0 0.00 0.00 0.00 99 1009.0
20260510045644 52 310 0.0 1.0 0.00 0.00 0.00 99 1009.4
20260510045141 52 355 0.0 1.0 0.00 0.00 0.00 99 1008.8
20260510044637 52 349 0.0 0.0 0.00 0.00 0.00 99 1009.3
20260510044134 52 351 0.0 0.0 0.00 0.00 0.00 99 1009.4
20260510043630 52 290 4.0 5.0 0.00 0.00 0.00 99 1009.4
20260510043127 52 352 0.0 0.0 0.00 0.00 0.00 99 1009.1
20260510042624 51 353 0.0 0.0 0.00 0.00 0.00 99 1009.4
20260510042120 51 354 0.0 1.0 0.00 0.00 0.00 99 1009.4
20260510041617 51 4 0.0 0.0 0.00 0.00 0.00 99 1009.5
20260510041114 51 349 0.0 0.0 0.00 0.00 0.00 99 1009.3
20260510040612 51 344 0.0 0.0 0.00 0.00 0.00 99 1009.2
20260510040108 51 358 0.0 0.0 0.00 0.00 0.00 99 1009.0
20260510035603 51 351 0.0 0.0 0.00 0.33 0.33 99 1009.3
20260510035058 51 340 0.0 0.0 0.00 0.33 0.33 99 1009.2
20260510034556 51 345 0.0 0.0 0.00 0.33 0.33 99 1009.3
20260510034053 51 347 0.0 0.0 0.00 0.33 0.33 99 1009.4
20260510033549 51 7 0.0 0.0 0.00 0.33 0.33 99 1009.3
20260510033047 51 342 0.0 0.0 0.00 0.33 0.33 99 1009.0
20260510032543 51 55 0.0 0.0 0.00 0.33 0.33 99 1008.9
20260510032038 51 357 0.0 0.0 0.00 0.33 0.33 99 1008.8
20260510031533 51 296 0.0 0.0 0.00 0.33 0.33 99 1009.0
20260510031030 51 143 2.0 2.0 0.00 0.33 0.33 99 1009.0
20260510030526 51 346 0.0 0.0 0.00 0.33 0.33 99 1009.1
20260510030023 51 10 0.0 1.0 0.00 0.33 0.33 99 1009.0
20260510025520 51 358 0.0 0.0 0.00 0.33 0.33 99 1009.2
20260510025018 52 28 0.0 0.0 0.00 0.33 0.33 99 1009.4
20260510024514 52 0 0.0 0.0 0.00 0.33 0.33 99 1009.4
20260510024010 52 347 0.0 0.0 0.00 0.33 0.33 99 1009.4
20260510023506 52 352 0.0 0.0 0.00 0.33 0.33 99 1009.3
20260510023004 52 32 0.0 0.0 0.00 0.33 0.33 99 1009.5
20260510022503 52 358 0.0 0.0 0.00 0.33 0.33 99 1009.4
20260510022003 52 356 1.0 1.0 0.00 0.33 0.33 99 1009.4
20260510021500 52 2 0.0 0.0 0.00 0.33 0.33 99 1009.3
20260510020956 52 342 0.0 1.0 0.00 0.33 0.33 99 1009.2
20260510020451 52 356 0.0 0.0 0.00 0.33 0.33 99 1009.1
20260510015946 52 77 2.0 2.0 0.00 0.33 0.33 99 1009.1
20260510015437 52 0 0.0 0.0 0.00 0.33 0.33 99 1009.4
20260510014932 52 358 0.0 0.0 0.00 0.33 0.33 99 1009.5
20260510014430 52 354 0.0 0.0 0.00 0.33 0.33 99 1009.3
20260510013926 52 3 0.0 0.0 0.00 0.33 0.33 99 1009.1
20260510013421 52 0 0.0 1.0 0.00 0.33 0.33 99 1009.3
20260510012916 52 310 0.0 1.0 0.00 0.33 0.33 99 1009.3
20260510012412 52 352 0.0 0.0 0.00 0.33 0.33 99 1009.4
20260510011907 52 5 0.0 0.0 0.00 0.33 0.33 99 1009.4
20260510011402 52 352 0.0 0.0 0.00 0.33 0.33 99 1009.6
20260510010858 52 25 0.0 0.0 0.00 0.33 0.33 99 1009.3
20260510010356 52 351 0.0 0.0 0.00 0.33 0.33 99 1009.4
20260510005852 52 354 0.0 0.0 0.00 0.33 0.33 99 1009.3
20260510005348 52 358 0.0 0.0 0.00 0.33 0.33 99 1009.4
20260510004846 52 357 0.0 0.0 0.00 0.33 0.33 99 1009.3
20260510004343 52 357 0.0 0.0 0.00 0.33 0.33 99 1009.1
20260510003841 52 357 0.0 0.0 0.00 0.33 0.33 99 1009.1
20260510003338 52 349 0.0 0.0 0.00 0.33 0.33 99 1009.3
20260510002836 52 349 0.0 0.0 0.00 0.33 0.33 99 1009.3
20260510002334 52 349 0.0 0.0 0.00 0.33 0.33 99 1008.9
20260510001830 52 349 0.0 0.0 0.00 0.33 0.33 99 1009.1
20260510001329 52 349 0.0 0.0 0.00 0.33 0.33 99 1009.0
20260510000824 52 353 0.0 0.0 0.00 0.33 0.33 99 1008.9
20260510000322 52 351 0.0 0.0 0.00 0.33 0.33 99 1008.7
20260509235819 52 352 0.0 0.0 0.00 0.33 0.33 99 1008.6
20260509235315 53 358 0.0 0.0 0.00 0.33 0.33 99 1008.5
20260509234811 53 351 0.0 0.0 0.00 0.33 0.33 99 1008.6
20260509234308 53 20 0.0 0.0 0.00 0.33 0.33 99 1008.5
20260509233806 53 353 0.0 0.0 0.00 0.33 0.33 99 1008.5
20260509233304 53 353 0.0 0.0 0.00 0.33 0.33 99 1008.5
20260509232759 53 355 0.0 0.0 0.00 0.33 0.33 99 1008.5
20260509232257 53 347 0.0 0.0 0.00 0.33 0.33 99 1008.3
20260509231753 53 345 0.0 0.0 0.00 0.33 0.33 99 1008.5
20260509231250 53 355 0.0 0.0 0.00 0.33 0.33 99 1008.2
20260509230748 53 351 0.0 0.0 0.00 0.33 0.33 99 1008.3
20260509230244 53 354 0.0 0.0 0.00 0.33 0.33 99 1008.5
20260509225739 53 353 0.0 0.0 0.00 0.33 0.33 99 1008.2
20260509225236 53 355 0.0 0.0 0.00 0.33 0.33 99 1008.3
20260509224732 53 0 0.0 0.0 0.00 0.33 0.33 99 1008.6
20260509224229 52 353 0.0 0.0 0.00 0.33 0.33 99 1008.2
20260509223726 52 352 0.0 0.0 0.00 0.33 0.33 99 1008.5
20260509223223 52 0 0.0 0.0 0.00 0.33 0.33 99 1008.4
20260509222720 52 357 0.0 0.0 0.00 0.33 0.33 99 1008.4
20260509222215 52 358 0.0 0.0 0.00 0.33 0.33 99 1008.6
20260509221711 52 355 0.0 0.0 0.00 0.33 0.33 99 1008.5
20260509221207 52 1 0.0 0.0 0.00 0.33 0.33 99 1008.5
20260509220703 52 351 0.0 0.0 0.00 0.33 0.33 99 1008.5
20260509220200 52 352 0.0 0.0 0.00 0.33 0.33 99 1008.5
20260509215655 52 351 0.0 0.0 0.00 0.33 0.33 99 1008.8
20260509215153 52 350 0.0 0.0 0.00 0.33 0.33 99 1008.9
20260509214650 52 359 0.0 0.0 0.00 0.33 0.33 99 1008.9
20260509214146 52 349 0.0 0.0 0.00 0.33 0.33 99 1008.9
20260509213644 52 353 0.0 0.0 0.00 0.33 0.33 99 1009.1
20260509213139 52 353 0.0 0.0 0.00 0.33 0.33 99 1009.0
20260509212637 51 353 0.0 0.0 0.00 0.33 0.33 99 1009.0
20260509212133 51 349 0.0 0.0 0.00 0.33 0.33 99 1008.9
20260509211629 51 351 0.0 0.0 0.00 0.33 0.33 99 1008.9
20260509211126 51 352 0.0 0.0 0.00 0.33 0.33 99 1009.0
20260509210623 51 336 0.0 0.0 0.00 0.33 0.33 99 1009.2
20260509210120 51 344 0.0 0.0 0.00 0.33 0.33 99 1009.3
20260509205614 51 354 0.0 0.0 0.05 0.33 0.33 99 1009.2
20260509205109 51 354 0.0 0.0 0.05 0.33 0.33 99 1009.2
20260509204606 51 353 0.0 0.0 0.00 0.32 0.32 99 1009.2
20260509204102 51 329 0.0 0.0 0.00 0.32 0.32 99 1009.3
20260509203559 51 349 0.0 0.0 0.00 0.32 0.32 99 1009.5
20260509203057 51 356 0.0 0.0 0.00 0.32 0.32 99 1009.4
20260509202551 51 352 0.0 0.0 0.00 0.32 0.32 99 1009.5
20260509202047 51 356 0.0 0.0 0.00 0.32 0.32 99 1009.6
20260509201542 51 353 0.0 0.0 0.00 0.32 0.32 99 1009.8
20260509201040 50 10 0.0 0.0 0.00 0.32 0.32 99 1009.6
20260509200539 50 351 0.0 0.0 0.00 0.32 0.32 99 1009.8
20260509200036 50 353 0.0 0.0 0.00 0.32 0.32 99 1009.9
20260509195531 50 10 0.0 0.0 0.00 0.32 0.32 99 1009.8
20260509195026 50 14 0.0 0.0 0.00 0.32 0.32 99 1010.0
20260509194521 50 349 0.0 0.0 0.07 0.32 0.32 99 1010.0
20260509194019 50 351 0.0 0.0 0.07 0.32 0.32 99 1010.0
20260509193519 50 353 0.0 0.0 0.00 0.31 0.31 99 1010.1
20260509193016 50 355 0.0 0.0 0.00 0.31 0.31 99 1010.2